Location: Moscow
(38.8570°N, 84.2291°W)
Time: 05:23:15
(UTC+00:00)

ISS - Pass Details

Date: 15 November 2025
Orbit: 416 x 421 km, 51.6° (Epoch: 08 December)

Event Time Altitude Azimuth Distance (km) Brightness Sun altitude
Rises 23:17:36 0° 244° (WSW) 2,358 2.0 -10.9°
Reaches altitude 10° 23:19:45 10° 251° (WSW) 1,496 0.6 -11.3°
Maximum altitude 23:23:00 46° 326° (NW) 570 -3.0 -11.9°
Enters shadow 23:25:33 15° 37° (NE) 1,227 -1.9 -12.4°
